Sheridan, WY

8:27 PM MDT on May 29, 2017 (GMT -0600)
Sheridan County

Weather History for KSHR - January, 2013

Change the Weather History Date:

Saturday, January 5, 2013

  Actual Average Record
Temperature  
Mean Temperature 26 °F 23 °F  
Max Temperature 40 °F 36 °F 67 °F (2012)
Min Temperature 11 °F 11 °F -32 °F (1913)
Degree Days  
Heating Degree Days 39 42  
Month to date heating degree days 214 210  
Since 1 July heating degree days 3169 3393  
Cooling Degree Days 0 0  
Month to date cooling degree days 0 0  
Year to date cooling degree days 0 0  
Moisture  
Dew Point 14 °F    
Average Humidity 63    
Maximum Humidity 77    
Minimum Humidity 48    
Precipitation  
Precipitation 0.00 in 0.01 in 0.28 in (1969)
Month to date precipitation T 0.08  
Year to date precipitation T 0.08  
Sea Level Pressure  
Sea Level Pressure 30.30 in    
Wind  
Wind Speed 5 mph (West)    
Max Wind Speed 17 mph    
Max Gust Speed 21 mph    
Visibility 10 miles    
Events      
T = Trace of Precipitation, MM = Missing Value Source: NWS Daily Summary

Daily Weather History Graph

Daily Weather History Graph

Search for Another Location

Airport or City:

Trip Planner

Search our weather history database for the weather conditions in past years. The results will help you decide how hot, cold, wet, or windy it might be!

Date:

Astronomy

Jan. 05, 2013 Rise Set
Actual Time 7:45 AM MST 4:42 PM MST
Civil Twilight 7:11 AM MST 5:15 PM MST
Nautical Twilight 6:35 AM MST 5:52 PM MST
Astronomical Twilight 5:59 AM MST 6:27 PM MST
Moon 12:46 AM MST (1/5) 11:41 AM MST (1/5)
Length of Visible Light 10h 03m
Length of Day
8h 56m
Last Quarter, 43% of the Moon is Illuminated
Jan 5
Last Quarter
Jan 11
New
Jan 18
First Quarter
Jan 26
Full
Feb 3
Last Quarter

Hourly Weather History & Observations

Time (MST) Temp. Windchill Dew Point Humidity Pressure Visibility Wind Dir Wind Speed Gust Speed Precip Events Conditions
12:53 AM 18.0 °F - 7.0 °F 62% 30.22 in 10.0 mi Calm Calm - N/A   Clear
1:53 AM 24.1 °F 14.4 °F 10.0 °F 55% 30.21 in 10.0 mi West 9.2 mph - N/A   Clear
2:53 AM 21.0 °F 9.9 °F 10.9 °F 65% 30.23 in 10.0 mi West 10.4 mph - N/A   Clear
3:53 AM 26.1 °F 17.6 °F 12.0 °F 55% 30.25 in 10.0 mi WNW 8.1 mph - N/A   Clear
4:53 AM 19.0 °F 13.9 °F 10.0 °F 68% 30.30 in 10.0 mi NNE 3.5 mph - N/A   Clear
5:53 AM 25.0 °F 14.2 °F 15.1 °F 66% 30.30 in 10.0 mi NW 11.5 mph - N/A   Scattered Clouds
6:53 AM 25.0 °F 15.5 °F 15.1 °F 66% 30.33 in 10.0 mi WNW 9.2 mph - N/A   Partly Cloudy
7:53 AM 26.1 °F 20.5 °F 15.1 °F 63% 30.35 in 10.0 mi North 4.6 mph - N/A   Clear
8:53 AM 25.0 °F 17.1 °F 15.1 °F 66% 30.37 in 10.0 mi WNW 6.9 mph - N/A   Clear
9:53 AM 28.9 °F - 18.0 °F 64% 30.38 in 10.0 mi Calm Calm - N/A   Clear
10:53 AM 32.0 °F - 19.0 °F 59% 30.35 in 10.0 mi Calm Calm - N/A   Clear
11:53 AM 36.0 °F 27.5 °F 21.0 °F 55% 30.32 in 10.0 mi NNW 12.7 mph - N/A   Clear
12:53 PM 37.9 °F 32.7 °F 21.9 °F 53% 30.30 in 10.0 mi NNW 6.9 mph - N/A   Clear
1:53 PM 39.9 °F 37.8 °F 21.0 °F 47% 30.26 in 10.0 mi NNW 3.5 mph - N/A   Clear
2:53 PM 37.9 °F - 21.0 °F 51% 30.28 in 10.0 mi Calm Calm - N/A   Clear
3:53 PM 37.0 °F - 19.9 °F 50% 30.29 in 10.0 mi Calm Calm - N/A   Clear
4:53 PM 24.1 °F 17.0 °F 17.1 °F 75% 30.35 in 10.0 mi SW 5.8 mph - N/A   Clear
5:53 PM 21.9 °F 12.5 °F 16.0 °F 78% 30.33 in 10.0 mi South 8.1 mph - N/A   Clear
6:53 PM 19.0 °F 11.1 °F 12.9 °F 77% 30.33 in 10.0 mi South 5.8 mph - N/A   Clear
7:53 PM 15.1 °F 9.4 °F 9.0 °F 77% 30.33 in 10.0 mi SSW 3.5 mph - N/A   Clear
8:53 PM 17.1 °F 10.0 °F 10.0 °F 74% 30.32 in 10.0 mi SSW 4.6 mph - N/A   Clear
9:53 PM 12.9 °F 6.9 °F 7.0 °F 77% 30.30 in 10.0 mi South 3.5 mph - N/A   Clear
10:53 PM 19.0 °F - 10.0 °F 68% 30.25 in 10.0 mi Calm Calm - N/A   Clear
11:53 PM 19.0 °F - 8.1 °F 62% 30.22 in 10.0 mi Calm Calm - N/A   Clear